CLASSIFICA

II TROFEO COLLINE MATERANE

DIVISIONI:
UNICA     CLASSIFICA:   ASSOLUTA    FCI    
CATEGORIE:   TUTTE    |   CT   |   ELMT   |   JMT   |   M1   |   M2   |   M3   |   M4   |   M5   |   M6   |   M7   |   M8   |   W1   |   W2  
FILTRO:
  Atleta      Team        Pulisci       Atleti classificati UNICA: 266  

Cliccare sulle colonne per cambiare ordinamento Pagina:   | 1 | | 2 | | 3 | | 4 | | 5 | | 6 |
Azioni Pos. M/F Cat. P.Cat. Pett Naz Atleta Squadra Tempo Distacco MEDIA
11M21343PISANI VINCENZOASD ANIMABIKE02:56:46,200 36,66 Km/h
22M11341CESARO ROBERTOASD ANIMABIKE02:56:46,317+00:00 36,66 Km/h
33M4184BORRELLI ANTONIOTEAM CPS CYCLING ASD03:01:17,195+04:31 35,74 Km/h
44M122LUCARELLI BARTOLOMEOASD PEDALE ELETTRICO03:01:42,223+04:56 35,66 Km/h
55M22342DEL PRETE GAETANOASD ANIMABIKE03:01:50,223+05:04 35,64 Km/h
66ELMT11LAROSSA MARCOASD PEDALE ELETTRICO03:02:05,175+05:19 35,59 Km/h
77ELMT2270GRECO CIROGS PICONESE MELENDUGNO03:02:14,092+05:28 35,56 Km/h
88M235GENTILE ROMOLOASD PEDALE ELETTRICO03:02:35,114+05:49 35,49 Km/h
99M13294GIANGREGORIO FELICEASD APICE TRE COLLI03:03:38,057+06:52 35,29 Km/h
1010M1466LUCIANO ADRIANOASD WORLD CYCLING CPS CAVALIERE03:03:39,400+06:53 35,28 Km/h
1111M316NAVEDORO GIUSEPPEASD PEDALE ELETTRICO03:03:45,982+06:59 35,26 Km/h
1212M154GAROFALO VALERIOASD PEDALE ELETTRICO03:03:46,176+07:00 35,26 Km/h
1313M42272QUARANTA AMBROGIOGS PICONESE MELENDUGNO03:03:59,314+07:13 35,22 Km/h
1414M5187COMUNE GIUSEPPEASD EURONIX TEAM03:07:17,485+10:31 34,60 Km/h
1515M24261TARANTINO VINCENZOASD FREE BIKE TEAM03:07:23,912+10:37 34,58 Km/h
1616ELMT320RESTA CESARE FILIPPOASD PEDALE ELETTRICO03:07:25,619+10:39 34,57 Km/h
1717M25356QUARTA COSIMO FRANCESCO3 CYCLING03:07:28,692+10:42 34,56 Km/h
1818M43290LANZA MARIOASDILETTANTISTICA DAUNIA CYCLING03:07:31,380+10:45 34,56 Km/h
1919ELMT4214STRAGAPEDE DOMENICOASD TEAM ALL BIKE RUVO DI PUGLIA03:07:38,380+10:52 34,53 Km/h
2020M32176NETTIS FRANCESCOASD LABICICLETTASTOREIT03:07:41,501+10:55 34,52 Km/h
2121M16269CURTO FRANCESCOGS PICONESE MELENDUGNO03:07:42,037+10:56 34,52 Km/h
2222CT1175MINIELLO STEFANOASD LABICICLETTASTOREIT03:07:44,031+10:58 34,52 Km/h
2323M44202PICARDI GIUSEPPEASD TEAM OROVERDE BITONTO03:07:54,954+11:08 34,48 Km/h
2424M33123LATESORIERE FRANCESCOASD SPES03:08:01,351+11:15 34,46 Km/h
2525M34165BONGALLINO PIETROASD TEAM EUROBIKE03:08:01,542+11:15 34,46 Km/h
2626M61108GIORGIO BARTOLOMEOTEAM VELOSPORT MAGALETTI LOSACCO03:08:16,230+11:30 34,42 Km/h
2727M26146BONGERMINO GIANFRANCOASD TEAM MURGIA BIKE SANTERAMO03:08:20,548+11:34 34,41 Km/h
2828M27296PRINCIPE VINCENZOASD APICE TRE COLLI03:08:26,250+11:40 34,39 Km/h
2929ELMT5333BADIALI DAVIDEASD LA MANDRA03:08:39,186+11:53 34,35 Km/h
3030M17281SATRIANO ROCCOUCD RIONERO IL VELOCIFERO03:08:42,963+11:56 34,34 Km/h
3131M28164MELE PIER FRANCESCOASD A NARDUCCI TEAM LUIGI COFANO03:09:06,723+12:20 34,27 Km/h
3232M2965FERRARA GENNAROASD WORLD CYCLING CPS CAVALIERE03:09:08,629+12:22 34,26 Km/h
3333M18105CAZZOLLA ALESSANDROASD VELO SPORT MODUGNO MAGALETTI RACING BIKE03:09:11,585+12:25 34,25 Km/h
3434M35131SALATINO GIANPAOLOASD NOCINBICI03:09:17,578+12:31 34,23 Km/h
3535M210351ROSSINI GIANPAOLOTEAM FALASCA ZAMA ANIMABIKE03:09:24,361+12:38 34,21 Km/h
3636M36223PIETRANGELO VINCENZOASD NEW BIKE ANDRIA03:09:47,541+13:01 34,14 Km/h
3737M211316CIERO EMANUELEASDTORTORABIKESCOM PEDALE POLLESE03:10:10,465+13:24 34,07 Km/h
3838ELMT6186LOSACCO GIUSEPPEASDTEAM AMICINBICI LOSACCO BIKE03:10:14,083+13:28 34,06 Km/h
3939M21236OLIVA CARMINECICLISTICA AVELLINO 201303:11:17,608+14:31 33,87 Km/h
4040M19373PUGLIESE NICOLAASD TEAM EUROBIKE03:11:42,780+14:56 33,80 Km/h
4141M213347PERNA MASSIMOGIGABIKE03:12:19,130+15:33 33,69 Km/h
4242M214313D'ANTUONO GIUSEPPETEAM DANIELLO03:12:48,955+16:02 33,61 Km/h
4343M215147PERRONE PIETROASD TEAM MURGIA BIKE SANTERAMO03:14:15,167+17:29 33,36 Km/h
4444ELMT7224SCARDIGNO GIACOMOASD NEW BIKE ANDRIA03:14:31,597+17:45 33,31 Km/h
4545ELMT8376D'APOTE MATTEOASSOCIAZIONE SPORTIVA DILETTANTISTICA BIKE SQUAD SAN SEVERO03:14:53,858+18:07 33,25 Km/h
4646M52317CURCIO ROMANO VALERIOASDTORTORABIKESCOM PEDALE POLLESE03:15:14,617+18:28 33,19 Km/h
4747M37386DE CAROLIS GABIELEASD CICLOSPORT 2000 FOCUS03:15:46,243+19:00 33,10 Km/h
4848M110262GUARNACCIO MICHELEUCD RIONERO IL VELOCIFERO03:15:46,864+19:00 33,10 Km/h
4949M45277SANNINO VINCENZOASD AREABICI03:15:52,890+19:06 33,08 Km/h
5050ELMT9136GOFFREDO GIUSEPPEASD AMATORI PUTIGNANO03:15:53,177+19:07 33,08 Km/h
5151M111355FALBO FRANCESCO GIUSEPPEGIGABIKE03:15:55,950+19:09 33,07 Km/h
5252M7160ALFANO GIOVANNIASD WORLD CYCLING CPS CAVALIERE03:15:58,022+19:12 33,07 Km/h
5353M38319LA ROCCA CARMINEASDTORTORABIKESCOM PEDALE POLLESE03:15:58,217+19:12 33,07 Km/h
5454M21624RIZZI LUCIANOSC FORMIGOSA03:15:59,268+19:13 33,06 Km/h
5555M217188MANCINI ANTONIOCICLISPORT2000 FOCUS BIKE TEAM03:16:00,056+19:14 33,06 Km/h
5656M46178DE LEO MASSIMILIANOASD CYCLON-STOREIT03:16:00,733+19:14 33,06 Km/h
5757M47122LATARTARA GIUSEPPE ANGELOASD SPES03:16:01,487+19:15 33,06 Km/h
5858ELMT10328PETTA DAVIDEHAPPY BIKERS03:16:03,813+19:17 33,05 Km/h
5959M39152DIGIACOMO GREGORIOBIKEMANIA ASSOCIAZIONE SPORTIVA DILETTANTISTICA03:16:04,888+19:18 33,05 Km/h
6060M218288CASTIGLIONE RAIMONDOASDILETTANTISTICA DAUNIA CYCLING03:16:09,816+19:23 33,03 Km/h
6161M31068SANTORO PASQUALEASD WORLD CYCLING CPS CAVALIERE03:16:16,903+19:30 33,01 Km/h
6262ELMT1185ROSOLIA ANDREATEAM CPS CYCLING ASD03:16:17,907+19:31 33,01 Km/h
6363M11234GRIMALDI FERDINANDOCICLISTICA AVELLINO 201303:16:18,894+19:32 33,01 Km/h
6464M113359MASTRORILLO DAVIDEASD NEW BIKE ANDRIA03:16:20,726+19:34 33,00 Km/h
6565M114150GIGLIO AGOSTINOASD TEAM EVOLUZIONE03:16:23,059+19:37 33,00 Km/h
6666ELMT12271MANFREDI FABIOGS PICONESE MELENDUGNO03:16:28,965+19:42 32,98 Km/h
6767M219266MANIGRASSO MIMMOTEAM AMICI DI SIMONE03:16:30,145+19:44 32,98 Km/h
6868M53153LOIZZO MARIOBIKEMANIA ASSOCIAZIONE SPORTIVA DILETTANTISTICA03:16:31,313+19:45 32,97 Km/h
6969M220295IEBBA FRANCESCOASD APICE TRE COLLI03:16:32,030+19:46 32,97 Km/h
7070ELMT13170PALMITESSA IVANASD TEAM EUROBIKE03:16:38,848+19:52 32,95 Km/h
7171M22192CASALINO GIANLUCATEAM 2 RUOTE GIUSSANO03:16:40,306+19:54 32,95 Km/h
7272M311378PORTULANO GIUSEPPEBIKEMANIA ASSOCIAZIONE SPORTIVA DILETTANTISTICA03:16:44,273+19:58 32,94 Km/h
7373M5461ARMERINI ALFONSOASD WORLD CYCLING CPS CAVALIERE03:16:58,496+20:12 32,90 Km/h
7474M312374CEDDIA MICHELEASSOCIAZIONE SPORTIVA DILETTANTISTICA BIKE SQUAD SAN SEVERO03:17:17,500+20:31 32,84 Km/h
7575M222216MARUCCIO GIANLUCALONGO RACING TEAM03:17:25,845+20:39 32,82 Km/h
7676M22390AQUILA BONAVENTURAASD TEAM DANIELLO03:17:26,092+20:40 32,82 Km/h
7777M22467NITTO MARCOASD WORLD CYCLING CPS CAVALIERE03:17:33,781+20:47 32,80 Km/h
7878M5563DI BENEDETTO SABATOASD WORLD CYCLING CPS CAVALIERE03:17:38,060+20:52 32,79 Km/h
7979ELMT14331MARTINA ARCANGELOASD TEAM FUORISOGLIA03:17:38,304+20:52 32,79 Km/h
8080M4881SELLITTO MASSIMOVOYAGER BIKE CASTEL SAN GIORGIO ASD03:17:38,363+20:52 32,79 Km/h
8181M225118DI NUNNO VALERIOASD CANUSIUM BIKE DI LEONARDO MARCOVECCHIO03:17:42,792+20:56 32,77 Km/h
8282M56377PINTO ANTONIOBIKEMANIA ASSOCIAZIONE SPORTIVA DILETTANTISTICA03:17:59,175+21:13 32,73 Km/h
8383M49367MANIGRASSO ANTONIOBIKEMANIA ASSOCIAZIONE SPORTIVA DILETTANTISTICA03:19:29,972+22:43 32,48 Km/h
8484M57274DAGNELLO VINCENZOUPJTARANTO03:19:42,458+22:56 32,45 Km/h
8585M58349BRESCIA RAFFAELEPOLISPORT CICLO CLUB FASANO ASD03:20:29,756+23:43 32,32 Km/h
8686M115187FORNARO CIROCICLISPORT2000 FOCUS BIKE TEAM03:20:44,465+23:58 32,28 Km/h
8787M116334MARRA EUGENIOUISP COMITATO TERRLE TARANTO03:21:53,392+25:07 32,10 Km/h
8888M31314PETRUZZI ANGELOASD PEDALE ELETTRICO03:22:54,526+26:08 31,94 Km/h
8989ELMT15280SALVATORE VITOUCD RIONERO IL VELOCIFERO03:23:05,067+26:19 31,91 Km/h
9090M314260DIOMEDE FABIOASD FREE BIKE TEAM03:23:13,424+26:27 31,89 Km/h
9191M11786PROVENZA GIUSEPPEASD RAMPIKEVOLI MTB03:23:28,804+26:42 31,85 Km/h
9292M226344CARRIERO IVANASD NUOVA ATHENA CLUB 200203:23:48,017+27:02 31,80 Km/h
9393M31598VALENTE SALVATOREASD CARBINIA BIKE CAROVIGNO03:24:03,535+27:17 31,76 Km/h
9494M118338GUAGNANO PAOLORHBIKE TEAM03:24:09,164+27:23 31,74 Km/h
9595M31670CIROTA MARIANOVOYAGER BIKE CASTEL SAN GIORGIO ASD03:24:10,330+27:24 31,74 Km/h
9696M410119NARDO' MASSIMILIANOASD CANUSIUM BIKE DI LEONARDO MARCOVECCHIO03:24:17,249+27:31 31,72 Km/h
9797M411217PARISI MICHELANGELOASD VELOCLUB MOLFETTA03:24:26,376+27:40 31,70 Km/h
9898M227387TORELLI GIUSEPPEMM BIKE03:24:26,675+27:40 31,70 Km/h
9999M62238FERRAIUOLI FRANCESCOASSOCIAZIONE SPORTIVA DILETTANTISTICA SIRINO BIKE03:24:30,336+27:44 31,69 Km/h
100100M63267MAZZOTTA LUIGITEAM AMICI DI SIMONE03:24:30,765+27:44 31,69 Km/h
101101M59134CHIARELLI PAOLOASD AMATORI PUTIGNANO03:24:35,844+27:49 31,67 Km/h
102102M228221LONGONE TOMMASOASD NEW BIKE ANDRIA03:25:06,056+28:20 31,59 Km/h
103103M510227GIORGIO GIUSEPPEASD RHBIKE TEAM03:25:10,726+28:24 31,58 Km/h
104104M229306PALAZZO VITOASDILETTANTISTICA ASD TEKNO BIKE PUTIGNANO BA03:25:20,894+28:34 31,56 Km/h
105105M317107FAVIA GIUSEPPEASD VELO SPORT MODUGNO MAGALETTI RACING BIKE03:25:27,419+28:41 31,54 Km/h
106106M31828MAGGIORE LEONARDOGRUPPO SPORTIVO ESERCITO03:25:33,364+28:47 31,52 Km/h
107107M41275FIORILLO GIUSEPPEVOYAGER BIKE CASTEL SAN GIORGIO ASD03:25:36,144+28:50 31,52 Km/h
108108M413389DE SANTIS SAVERIOASD DILETTANTISTICA TEAM ROAD BIKE03:25:38,606+28:52 31,51 Km/h
109109M119148SETTE MICHELEASD TEAM MURGIA BIKE SANTERAMO03:25:43,045+28:57 31,50 Km/h
110110M31943AMATO UMBERTOTEAM CPS03:26:21,875+29:35 31,40 Km/h
111111ELMT1630PETRONE ANTONIOASD SPEEDARROW03:26:46,066+30:00 31,34 Km/h
112112M12029ANZIVINO CELESTEASD SPEEDARROW03:26:46,655+30:00 31,34 Km/h
113113M64297QUARANTIELLO LUCIOASD APICE TRE COLLI03:27:25,929+30:39 31,24 Km/h
114114M320253CIRIGLIANO DOMENICO50E+5603:27:49,862+31:03 31,18 Km/h
115115M12195NIGRO COSIMOASD CARBINIA BIKE CAROVIGNO03:28:15,915+31:29 31,11 Km/h
116116M321241MILEO NICOLAASSOCIAZIONE SPORTIVA DILETTANTISTICA SIRINO BIKE03:28:44,856+31:58 31,04 Km/h
117117M511242VITALE GIROLAMOASSOCIAZIONE SPORTIVA DILETTANTISTICA SIRINO BIKE03:28:48,116+32:02 31,03 Km/h
118118M65348DE MARCO GAETANOLA FABIANESE TEAM LIONS03:29:04,347+32:18 30,99 Km/h
119119M66114COLUCCI ORONZOAS DILETTANTISTICA POLISPORT POLIGNANO03:29:14,998+32:28 30,97 Km/h
120120M122167DICOSOLA LUIGI MARIAASD TEAM EUROBIKE03:29:16,097+32:30 30,97 Km/h
121121M67275SPERA PASQUALEUPJTARANTO03:29:17,792+32:31 30,96 Km/h
122122JMT1329PETTA MAICOLHAPPY BIKERS03:29:25,034+32:39 30,94 Km/h
123123M512103LANZILOTTI VITTORIOASD CARBINIA BIKE03:29:36,409+32:50 30,92 Km/h
124124M414222PETRINO DOMENICOASD NEW BIKE ANDRIA03:29:36,800+32:50 30,91 Km/h
125125M32233EVANGELISTA VINCENZOCICLISTICA AVELLINO 201303:29:41,649+32:55 30,90 Km/h
126126M230101PEDRERO SALCEDO FRANCISCOASD IL VELOCIPEDE BARI03:29:47,476+33:01 30,89 Km/h
127127M231320MONTESANO NICOLAASDTORTORABIKESCOM PEDALE POLLESE03:29:50,043+33:04 30,88 Km/h
128128M323109RELLA PIETROASD VELO SPORT MODUGNO MAGALETTI RACING BIKE03:29:53,783+33:07 30,87 Km/h
129129M232337DONVITO PAOLORHBIKE TEAM03:29:54,656+33:08 30,87 Km/h
130130JMT2177CILIBERTI EDOARDOASD AVIS BIKE RUVO03:29:55,075+33:09 30,87 Km/h
131131M415340LOTITO ANDREAASDILETTANTISTICA MOUNTAIN BIKE CLUB BARI03:29:55,213+33:09 30,87 Km/h
132132M41676GUARIGLIA LUIGIVOYAGER BIKE CASTEL SAN GIORGIO ASD03:29:56,417+33:10 30,87 Km/h
133133ELMT17301PASTUSHENKO YANASD AVIS BIKE RUVO03:29:59,309+33:13 30,86 Km/h
134134M233141SANESE SAVINOASD AMATORI PUTIGNANO03:30:00,796+33:14 30,86 Km/h
135135M123143BABBO BARTOLOMEOASSOCIAZSPORTDILETTANTISTICA 2 RUOTE MOLA DI BARI03:30:06,266+33:20 30,84 Km/h
136136M417375D'ANTUONI GIAMPIETROASSOCIAZIONE SPORTIVA DILETTANTISTICA BIKE SQUAD SAN SEVERO03:30:15,047+33:29 30,82 Km/h
137137M234219DADDABBO GINOASD NRG BIKE03:30:15,701+33:29 30,82 Km/h
138138M513311DE CICCO GIULIOASD CICLI SERINO03:30:18,105+33:32 30,81 Km/h
139139M514325NONNATO NICOLAASDILETTANTISTICA MOUNTAIN BIKE CLUB BARI03:30:20,098+33:34 30,81 Km/h
140140M418160MINUTIELLO RAFFAELEASSOCIAZIONE SPORTIVA DILETTANTISTICA TEAM BIKE SPINAZZOLA03:30:32,459+33:46 30,78 Km/h
141141M72174RADOGNA PASQUALEASD SCCASAMASSIMA03:30:33,093+33:47 30,78 Km/h
142142M324350RUBINO TOMMASOPOLISPORT CICLO CLUB FASANO ASD03:30:33,935+33:47 30,77 Km/h
143143ELMT18130PACE SIMONEASD NOCINBICI03:30:42,670+33:56 30,75 Km/h
144144M124339MARRA RAFFAELERHBIKE TEAM03:30:48,698+34:02 30,74 Km/h
145145M419196ANCONA LUIGIASD TEAM OROVERDE BITONTO03:30:52,930+34:06 30,73 Km/h
146146M325312CIGNARELLI SAVINOHELLOBIKE TEAM03:30:59,855+34:13 30,71 Km/h
147147M420303CAMBARERI VINCENZOASDILETTANTISTICA ASD TEKNO BIKE PUTIGNANO BA03:31:02,621+34:16 30,70 Km/h
148148M326240IELPO ANTONIOASSOCIAZIONE SPORTIVA DILETTANTISTICA SIRINO BIKE03:31:36,081+34:50 30,62 Km/h
149149M4217BOCCIA LUIGIASD PEDALE ELETTRICO03:31:36,133+34:50 30,62 Km/h
150150M515235CIFARELLI NICOLAASSOCIAZIONE SPORTIVA DILETTANTISTICA SIRINO BIKE03:31:36,173+34:50 30,62 Km/h
151151M125291PAGLIALONGA ALESSANDROASDILETTANTISTICA DAUNIA CYCLING03:31:52,515+35:06 30,58 Km/h
152152M7388GIANNUZZI GIUSEPPEASD EURONIX TEAM03:31:59,116+35:13 30,57 Km/h
153153M81244MOSCARELLI MICHELETEAM FIERAMOSCA BARLETTA03:32:03,935+35:17 30,56 Km/h
154154M51639INGRIVAGLIA ANGELOASD TEAM TWO TOWERS PACGEL TEAM03:33:17,780+36:31 30,38 Km/h
155155M422357LABARILE RAFFAELEASD GRUPPO CICLISTICO SANTERMANO03:33:25,600+36:39 30,36 Km/h
156156M423352TIRITERA LEONARDOTEAM FALASCA ZAMA ANIMABIKE03:33:48,447+37:02 30,31 Km/h
157157M23542ALFANO DARIOTEAM CPS03:34:06,409+37:20 30,27 Km/h
158158M126282BUONPANE GIUSEPPEASC MARMO PLATANO03:34:14,207+37:28 30,25 Km/h
159159M32738DESIDERIO BENIAMINOASD TEAM TWO TOWERS PACGEL TEAM03:34:47,499+38:01 30,17 Km/h
160160ELMT1959SCHIAVONE GIUSEPPEASD TEAM GIANNINI03:35:03,392+38:17 30,13 Km/h
161161M328264CURIONE MILANO FRANCESCOASD MATERA CYCLING03:35:15,876+38:29 30,10 Km/h
162162M74156PORZIO VITO ANTONIOASD GS PEDALE MASSAFRA03:35:21,917+38:35 30,09 Km/h
163163M42423BRAIA GIOVANNISPORT BIKE LUCANIA03:35:23,913+38:37 30,08 Km/h
164164ELMT20144SPORTELLI COSIMOASSOCIAZSPORTDILETTANTISTICA 2 RUOTE MOLA DI BARI03:35:29,426+38:43 30,07 Km/h
165165M127117DEL LATTE MICHELEASD CANUSIUM BIKE DI LEONARDO MARCOVECCHIO03:35:39,815+38:53 30,05 Km/h
166166M425129DENTAMARO LEONARDOASD NOCINBICI03:35:42,430+38:56 30,04 Km/h
167167M6862CARUSO VINCENZOASD WORLD CYCLING CPS CAVALIERE03:35:47,045+39:01 30,03 Km/h
1681W1111DI NUNNO ROSAASD PEDALE ELETTRICO03:35:56,461+39:10 30,01 Km/h
169168ELMT21308PUGLIESE DANIELEASDILETTANTISTICA ASD TEKNO BIKE PUTIGNANO BA03:36:05,474+39:19 29,99 Km/h
170169M69120SORRENTI ANTONIOASD CANUSIUM BIKE DI LEONARDO MARCOVECCHIO03:36:07,163+39:21 29,98 Km/h
171170M32982VILLAMAINA NICOLAVOYAGER BIKE CASTEL SAN GIORGIO ASD03:36:07,672+39:21 29,98 Km/h
172171M61071DE SANTIS TOMMASOVOYAGER BIKE CASTEL SAN GIORGIO ASD03:36:07,797+39:21 29,98 Km/h
173172M51777MARSIGLIA ANTONIOVOYAGER BIKE CASTEL SAN GIORGIO ASD03:36:08,104+39:22 29,98 Km/h
174173M426201MASTRONICOLA ONOFRIOASD TEAM OROVERDE BITONTO03:36:21,386+39:35 29,95 Km/h
175174M12846DE SIMONE -TEAM CPS03:36:22,235+39:36 29,95 Km/h
176175M7518VOLPE PIETROASD PEDALE ELETTRICO03:36:53,234+40:07 29,88 Km/h
177176M330142VALLETTI LUCAASD AMATORI PUTIGNANO03:36:54,345+40:08 29,87 Km/h
178177M331346GIAMPALMO GAETANOASSOCIAZIONE SPORTIVA DILETTANTISTICA DYNAMIK BIKE03:37:01,100+40:15 29,86 Km/h
179178M427299MICELLI GIANLUCAGSC ARNESANO03:37:11,177+40:25 29,84 Km/h
180179M33244D'AURIA SEBASTIANOTEAM CPS03:37:12,667+40:26 29,83 Km/h
181180M333292PAGLIALONGA GIULIANOASDILETTANTISTICA DAUNIA CYCLING03:37:22,023+40:36 29,81 Km/h
182181M518162COFANO LUIGIASD A NARDUCCI TEAM LUIGI COFANO03:37:25,370+40:39 29,80 Km/h
183182M428279MAGGIORE ANTONIOMESAGNE ON BIKE03:37:36,285+40:50 29,78 Km/h
184183M334180PERRONE LORENZOASD CYCLON-STOREIT03:38:57,687+42:11 29,59 Km/h
185184M335171RAGNATELA RUGGIEROASD TEAM EUROBIKE03:39:14,706+42:28 29,56 Km/h
186185M611263LAPOLLA CLAUDIOUCD RIONERO IL VELOCIFERO03:39:22,004+42:36 29,54 Km/h
187186M519363CAROVIGNA VINCENZOBIKEMANIA ASSOCIAZIONE SPORTIVA DILETTANTISTICA03:39:39,516+42:53 29,50 Km/h
1882W1251ARENA SONIAASD CICLISTICA SALERNITANA NICOLA ROMANO03:39:41,829+42:55 29,50 Km/h
189187M23652BUONOCORE PIETROASD CICLISTICA SALERNITANA NICOLA ROMANO03:39:42,684+42:56 29,49 Km/h
190188M612138MELE VITOASD AMATORI PUTIGNANO03:39:51,209+43:05 29,47 Km/h
191189M336100FANFANI LEANDROASD IL VELOCIPEDE BARI03:40:40,951+43:54 29,36 Km/h
192190ELMT22220ALBANESE RICCARDOASD NEW BIKE ANDRIA03:41:21,491+44:35 29,27 Km/h
193191M129326GIUGLIANO SAVERIOHAPPY BIKERS03:41:49,435+45:03 29,21 Km/h
194192M33727DROGHINI PIERLUIGITEAM MERIDIANA KAMEN03:42:07,805+45:21 29,17 Km/h
195193M520106DE TULLIO GIOVANNIASD VELO SPORT MODUGNO MAGALETTI RACING BIKE03:42:12,742+45:26 29,16 Km/h
196194M130140PARISI ENRICOASD AMATORI PUTIGNANO03:42:52,123+46:06 29,08 Km/h
197195M613273RINALDI FRANCESCOASD POLICORO BIKE03:43:37,319+46:51 28,98 Km/h
198196M23747DURANTE VINCENZOTEAM CPS03:43:38,633+46:52 28,97 Km/h
199197M33822ARNONE NICOLASPORT BIKE LUCANIA03:44:32,629+47:46 28,86 Km/h
200198M339276IANTORNO VITTORIOASD CICLAMATORI CALABRIA03:44:36,667+47:50 28,85 Km/h
201199M76137LAPORTA FRANCESCOASD AMATORI PUTIGNANO03:44:39,606+47:53 28,84 Km/h
202200M340265LIPPI CRISTIANTEAM AMICI DI SIMONE03:45:20,123+48:34 28,76 Km/h
203201M614336D'ALO' PALMINORHBIKE TEAM03:45:27,243+48:41 28,74 Km/h
204202M52164DI MARIO ROCCOASD WORLD CYCLING CPS CAVALIERE03:45:32,229+48:46 28,73 Km/h
205203M522189SOLIDA SALVATORECICLISPORT2000 FOCUS BIKE TEAM03:45:36,633+48:50 28,72 Km/h
206204M238361MASUCCIO CLAUDIOASD APICE TRE COLLI03:45:47,524+49:01 28,70 Km/h
207205M523110ZIZZARI GIUSEPPEASD VELO SPORT MODUGNO MAGALETTI RACING BIKE03:46:03,465+49:17 28,67 Km/h
208206M524390PARADISO ROCCOSPER ALBEROBELLO03:46:09,385+49:23 28,65 Km/h
209207M525179MANTI DARIOASD CYCLON-STOREIT03:46:13,490+49:27 28,64 Km/h
210208M52678NASTO ANTONIOVOYAGER BIKE CASTEL SAN GIORGIO ASD03:46:41,763+49:55 28,58 Km/h
211209M239307PEPE NICOLAASDILETTANTISTICA ASD TEKNO BIKE PUTIGNANO BA03:47:12,498+50:26 28,52 Km/h
212210M341111CAPPARUCCIA LUIGIASD RED LIONS03:47:14,198+50:28 28,52 Km/h
213211M240309SICOLI DAVIDEASDILETTANTISTICA ASD TEKNO BIKE PUTIGNANO BA03:47:18,721+50:32 28,51 Km/h
214212M342126MADAGHIELE SALVATOREASD TEAM FUORISOGLIA03:47:35,729+50:49 28,47 Km/h
215213M131125LERNA CARMINEASD TEAM FUORISOGLIA03:47:35,971+50:49 28,47 Km/h
216214M34335IRIZARRY RAMONCICLISTICA AVELLINO 201303:48:06,796+51:20 28,41 Km/h
217215M34445DE CARLUCCIO ROBERTOTEAM CPS03:48:31,585+51:45 28,36 Km/h
218216M429149GIACCHETTA NICOLAASD TEAM EVOLUZIONE03:48:31,920+51:45 28,35 Km/h
219217M34554PARRELLA ANTONLUCIOASD CICLISTICA SALERNITANA NICOLA ROMANO03:48:52,376+52:06 28,31 Km/h
220218M430124SPINOSA FILIPPOASD SPES03:48:53,266+52:07 28,31 Km/h
221219M77300SPEDICATO LUCIOGSC ARNESANO03:49:32,291+52:46 28,23 Km/h
222220M527173OROFINO VITOASD SCCASAMASSIMA03:49:45,119+52:59 28,20 Km/h
223221M24116TERLIZZI LUIGIASD PEDALE ELETTRICO03:49:57,726+53:11 28,18 Km/h
224222M242285MESSINA CARMINEASC MARMO PLATANO03:50:06,938+53:20 28,16 Km/h
225223M431259BRUNO BATTISTAASD FREE BIKE TEAM03:50:39,994+53:53 28,09 Km/h
226224M8240PALOMBA LUCIANOASD TEAM TWO TOWERS PACGEL TEAM03:50:41,758+53:55 28,09 Km/h
227225M132145VINELLA VITOASSOCIAZSPORTDILETTANTISTICA 2 RUOTE MOLA DI BARI03:50:57,730+54:11 28,06 Km/h
228226M615139MEZZAPESA PATRIZIOASD AMATORI PUTIGNANO03:51:05,355+54:19 28,04 Km/h
229227M52893CALO' ORONZOASD CARBINIA BIKE CAROVIGNO03:51:06,828+54:20 28,04 Km/h
230228M346193PIERRO NICOLAASSOCIAZIONE SPORTIVA DILETTANTISTICA DYNAMIK BIKE03:51:16,357+54:30 28,02 Km/h
231229M347112GENITO NICOLAASD RED LIONS03:51:21,726+54:35 28,01 Km/h
232230ELMT23230SEMERANO DOMENICOASS SPORT DILETT BICI CLUB OSTUNI03:51:51,483+55:05 27,95 Km/h
233231M34821CASTIGLIA VALERIOASD CICLISTICA EBOLI SELE BIKE03:52:17,207+55:31 27,90 Km/h
234232M349168MATERA CLAUDIOASD TEAM EUROBIKE03:53:08,616+56:22 27,79 Km/h
235233M432210CAIATI DOMENICOASD TEAM ALL BIKE RUVO DI PUGLIA03:53:55,249+57:09 27,70 Km/h
236234M133211CESAREO MICHELEASD TEAM ALL BIKE RUVO DI PUGLIA03:53:55,299+57:09 27,70 Km/h
2373W1315TARANTINI CINZIAASD PEDALE ELETTRICO03:53:59,039+57:13 27,69 Km/h
238235M616257OLIVIERI GIACOMO50E+5603:54:01,420+57:15 27,69 Km/h
239236M433379TOCCI GIUSEPPEBIKEMANIA ASSOCIAZIONE SPORTIVA DILETTANTISTICA03:54:29,167+57:43 27,63 Km/h
240237M529225CAPOZZO GIACOMOLEONESSA DI PUGLIA ALTAMURA03:55:56,232+59:10 27,46 Km/h
2414W14362ALABRESE CARMENBIKEMANIA ASSOCIAZIONE SPORTIVA DILETTANTISTICA03:56:20,726+59:34 27,42 Km/h
242238M434198DE PALMA MASSIMILIANOASD TEAM OROVERDE BITONTO03:56:22,586+59:36 27,41 Km/h
243239M350158DI CONZA GIUSEPPEASSOCIAZIONE SPORTIVA DILETTANTISTICA TEAM BIKE SPINAZZOLA03:59:31,236+01:02:45 27,05 Km/h
244240M243218ARGENTO RICCARDOASD NRG BIKE04:00:31,609+01:03:45 26,94 Km/h
245241M13494GRECO DOMENICOASD CARBINIA BIKE CAROVIGNO04:01:00,110+01:04:14 26,89 Km/h
246242M351243GRANDOLFO LORENZOASD OVERLAND GIOVINAZZO04:02:15,380+01:05:29 26,75 Km/h
247243M617381CONSENTI GIUSEPPEASD CICLOSPORT 2000 FOCUS04:02:34,826+01:05:48 26,71 Km/h
248244M530255FORTUNATO ANTONIO SANTO50E+5604:02:48,071+01:06:02 26,69 Km/h
249245M24496SBANO MAURIZIOASD CARBINIA BIKE CAROVIGNO04:04:02,860+01:07:16 26,55 Km/h
250246M618102LANZILOTTI ANGELOASD CARBINIA BIKE04:04:49,651+01:08:03 26,47 Km/h
251247M352237DE LIO CHRISTIANASSOCIAZIONE SPORTIVA DILETTANTISTICA SIRINO BIKE04:05:51,537+01:09:05 26,36 Km/h
252248M531302CRUDELE DOMENICOLA CICLISTICA MOLFETTESE04:05:58,410+01:09:12 26,34 Km/h
2535W21358LASSANDRO MARIAASD GRUPPO CICLISTICO SANTERMANO04:06:48,075+01:10:02 26,26 Km/h
254249M35348LAMBIASE ANTONIOTEAM CPS04:10:32,221+01:13:46 25,86 Km/h
255250M354252BEVILACQUA NICOLA50E+5604:11:55,241+01:15:09 25,72 Km/h
256251M24549LAMBIASE VINCENZOTEAM CPS04:11:55,905+01:15:09 25,72 Km/h
257252M78254FITTIPALDI DONATO50E+5604:11:57,159+01:15:11 25,72 Km/h
258253M355368MITA ANTONIOBIKEMANIA ASSOCIAZIONE SPORTIVA DILETTANTISTICA04:11:58,622+01:15:12 25,72 Km/h
259254M356199LISI GIUSEPPEASD TEAM OROVERDE BITONTO04:14:55,824+01:18:09 25,42 Km/h
260255M532191D'ELIA NICOLAASSOCIAZIONE SPORTIVA DILETTANTISTICA DYNAMIK BIKE04:18:44,246+01:21:58 25,04 Km/h
261256M357206RUGGIERO PASQUALEASD TEAM OROVERDE BITONTO04:18:49,413+01:22:03 25,04 Km/h
262257M358278TETO DOMENICOASD LUCANIA BIKE04:20:31,428+01:23:45 24,87 Km/h
263258M83135DI BITONTO FRANCESCOASD AMATORI PUTIGNANO04:21:08,880+01:24:22 24,81 Km/h
264259M359133CASTELLANA GREGORIOASD AMATORI PUTIGNANO04:22:24,955+01:25:38 24,69 Km/h
2656W22315CALIFANO ROSAASDTORTORABIKESCOM PEDALE POLLESE04:24:28,794+01:27:42 24,50 Km/h
266260M435369STALLONE MICHELEBIKEMANIA ASSOCIAZIONE SPORTIVA DILETTANTISTICA04:35:03,977+01:38:17 23,56 Km/h
Righe per pagina::     TUTTE    |   30   |   50   |   100   Pagina:   | 1 | | 2 | | 3 | | 4 | | 5 | | 6 |